Regional Weather Roundup
Issued by NWS Green Bay, WI

Home | Current Version | Previous Version | Graphics & Text | Print | Product List | Glossary Off
Versions: 1 2 3 4 5 6 7 8 9 10 11 12 13 14 15 16 17 18 19 20 21 22 23 24 25 26 27 28 29 30 31 32 33 34 35 36 37 38 39 40 41 42 43 44 45 46 47 48 49 50

000
ASUS43 KGRB 260511
RWRGRB

NORTH-CENTRAL AND NORTHEAST WISCONSIN REGIONAL WEATHER ROUNDUP
NATIONAL WEATHER SERVICE GREEN BAY WI
1200 AM CDT TUE MAY 26 2015

WIZ005-009-010>012-018-019-260600-
NORTH CENTRAL WISCONSIN

CITY           SKY/WX    TMP DP  RH WIND       PRES   REMARKS
IRONWOOD       CLOUDY    54  54 100 NW3       29.75R VSB 1/4
MANITOWISH WTR CLEAR     57  57 100 S6        29.79F
ARBOR VITAE    MOCLDY    61  58  92 S3        29.80S
EAGLE RIVER    MOCLDY    59  58  97 CALM      29.80F
LAND O LAKES   CLEAR     60  58  94 S5        29.80F
RHINELANDER    CLOUDY    61  59  93 S6        29.82S
PHILLIPS       CLOUDY    61  60  96 S7        29.80R
ANTIGO         PTCLDY    56  56 100 S8        29.84F
TOMAHAWK       CLOUDY    60  59  96 CALM      29.82S
MERRILL        PTCLDY    57  57 100 SE5       29.83S FOG
$$

WIZ013-073-260600-
NORTHEAST WISCONSIN

CITY           SKY/WX    TMP DP  RH WIND       PRES   REMARKS
IRON MOUNTAIN  PTCLDY    63  59  87 S5        29.80R
MARINETTE      CLOUDY    64  59  82 SW8       29.83R
OCONTO         MOCLDY    63  62  98 CALM      29.83S
$$

WIZ017-030-035>037-045-260600-
CENTRAL WISCONSIN

CITY           SKY/WX    TMP DP  RH WIND       PRES   REMARKS
MEDFORD        PTCLDY    59  59  97 S3        29.83R
WAUSAU         MOCLDY    62  60  93 S6        29.82S
MOSINEE        PTCLDY    59  59 100 S3        29.85R
MARSHFIELD     MOCLDY    61  59  93 S5        29.83S
WISC RAPIDS    PTCLDY    63  60  90 S5        29.84F
STEVENS POINT  PTCLDY    60  59  96 S6        29.84S
WAUPACA        PTCLDY    64  63  97 CALM      29.85S
SHAWANO        MOCLDY    64  61  91 CALM      29.84S
CLINTONVILLE   PTCLDY    61  59  94 CALM      29.84S
$$

WIZ038-039-048-051-260600-
FOX VALLEY

CITY           SKY/WX    TMP DP  RH WIND       PRES   REMARKS
NWS GREEN BAY  PTCLDY    64  61  90 S7        29.85S
APPLETON       PTCLDY    66  59  77 SW14      29.86S
OSHKOSH        PTCLDY    68  60  75 S9        29.86S
FOND DU LAC    MOCLDY    69  59  70 S10       29.88S
$$

WIZ022-050-052-260600-
EAST CENTRAL WISCONSIN

CITY           SKY/WX    TMP DP  RH WIND       PRES   REMARKS
STURGEON BAY   PTCLDY    64  59  82 S9        29.87S
MANITOWOC      PTCLDY    69  61  75 S8        29.87S
SHEBOYGAN      PTCLDY    66  61  84 SW9       29.89S
$$

LMZ563-521-522-541>543-260600-
LAKESHORE

STATION/POSITION TIME  TEMP    WIND        PRES    VSBY  WAVE
                       AIR SEA DIR/SP/G                  HT/PER
                 (UTC) (F)     (DEG/KT/KT) (MB)    (MI)  (FT/S)
SHEBOYGAN LKSHOR 0500   68     190/ 11/ 11 1012.4R
KEWAUNEE LKSHORE 0400   67     210/  6/  7 1010.3R
NORTHPORT PIER   0420   60     190/  3/ 19 1010.2R
N MID LAKE BUOY  0450   44 37  210/ 14/ 16 1010.4R         3/ 5
SISTER BAY LKSHO 0417   68     260/ 11/ 14   N/A
CHAMBERS ISLAND  0400   64     190/  7/ 14 1009.8R
MENOMINEE LKSHOR 0400   67     210/  7/  9 1010.4R
$$



USA.gov is the U.S. government's official web portal to all federal, state and local government web resources and services.